341P/Gibbs (2007)

Japanese version
Home page
Updated on July 22, 2016

---------------------------------------------------------------------

* Profile

Designation 341P/2007 R3
Discovery Date September 14, 2007
Magnitude 18.9 mag
Discoverer A. R. Gibbs (Mt. Lemmon Survey)

* Orbital Elements

Epoch 2007 June 29.0 TT = JDT 2454280.5
T 2007 July 6.62611 TT                                  MPCW
q   2.4998210            (2000.0)            P               Q
n   0.11132111     Peri.  312.17869     +0.95165013     +0.30538172
a   4.2797430      Node    30.08471     -0.25867035     +0.85499559
e   0.4158946      Incl.    3.80060     -0.16568549     +0.41919512
P   8.85
From 126 observations 2007 Sept. 10-2016 July 17, mean residual 0".6.

* Magnitudes Graph

        m1 = 13.5 + 5 log d + 10.0 log r

---------------------------------------------------------------------

The orbital elements are published on M.P.E.C. 2016-O265.
The magnitudes graphs are made with Comet for Windows.

---------------------------------------------------------------------

Copyright(C) Seiichi Yoshida (comet@aerith.net). All rights reserved.